Tracking 19794 objects as of 23-Jul-2019
HD Live streaming from Space Station
objects crossing your sky now

SUPERBIRD C

Track SUPERBIRD C now!
SUPERBIRD C is classified as:


NORAD ID: 24880
Int'l Code: 1997-036A
Perigee: 36,109.4 km
Apogee: 36,155.7 km
Inclination: 7.9 °
Period: 1,453.4 minutes
Semi major axis: 42503 km
RCS: 12.5892 m2 (large)
Launch date: July 28, 1997
Source: Japan (JPN)
Launch site: AIR FORCE EASTERN TEST RANGE (AFETR)

14 Ku-band; Asia-Pacific region; voice and video communications.
aabbcc
Your satellite tracking list
Your tracking list is empty




NASA's NSSDC Master Catalog

Two Line Element Set (TLE):
1 24880U 97036A   19202.92954968 -.00000290  00000-0  00000+0 0  9994
2 24880   7.9105  49.6388 0005449 309.1697  50.8494  0.99075220 80294
Source of the keplerian elements: AFSPC